| time (UTC) | temp C | wind direction | speed KPH | gust KPH | rain 1hr cm | rain 24hr cm | rain mn cm | humidity % | barometer mb |
| 20260508185504 | 8 | 254 | 24.1 | 43.5 | 0.00 | 0.00 | 0.00 | 54 | 1004.1 |
| 20260508185005 | 8 | 237 | 32.2 | 48.3 | 0.00 | 0.00 | 0.00 | 54 | 1003.9 |
| 20260508184504 | 8 | 229 | 33.8 | 48.3 | 0.00 | 0.00 | 0.00 | 52 | 1003.9 |
| 20260508184005 | 8 | 224 | 25.7 | 51.5 | 0.00 | 0.00 | 0.00 | 52 | 1004.0 |
| 20260508183504 | 8 | 226 | 22.5 | 51.5 | 0.00 | 0.00 | 0.00 | 53 | 1003.9 |
| 20260508183005 | 8 | 232 | 20.9 | 53.1 | 0.00 | 0.00 | 0.00 | 53 | 1003.9 |
| 20260508182504 | 8 | 225 | 29.0 | 53.1 | 0.00 | 0.00 | 0.00 | 52 | 1003.7 |
| 20260508182005 | 8 | 232 | 35.4 | 49.9 | 0.00 | 0.00 | 0.00 | 53 | 1004.0 |
| 20260508181504 | 8 | 239 | 29.0 | 46.7 | 0.00 | 0.00 | 0.00 | 53 | 1003.9 |
| 20260508181005 | 9 | 237 | 27.4 | 41.8 | 0.00 | 0.00 | 0.00 | 54 | 1003.9 |
| 20260508180504 | 8 | 231 | 27.4 | 40.2 | 0.00 | 0.00 | 0.00 | 54 | 1003.7 |
| 20260508180005 | 8 | 225 | 25.7 | 46.7 | 0.00 | 0.00 | 0.00 | 54 | 1003.6 |
| 20260508175504 | 8 | 230 | 27.4 | 53.1 | 0.00 | 0.00 | 0.00 | 54 | 1003.9 |
| 20260508175005 | 8 | 239 | 35.4 | 53.1 | 0.00 | 0.00 | 0.00 | 54 | 1003.7 |
| 20260508174504 | 8 | 252 | 24.1 | 43.5 | 0.00 | 0.00 | 0.00 | 56 | 1003.6 |
| 20260508174004 | 8 | 248 | 29.0 | 54.7 | 0.00 | 0.00 | 0.00 | 55 | 1003.6 |
| 20260508173008 | 8 | 239 | 35.4 | 54.7 | 0.00 | 0.00 | 0.00 | 55 | 1003.6 |
| 20260508172504 | 8 | 242 | 30.6 | 49.9 | 0.00 | 0.00 | 0.00 | 55 | 1003.5 |
| 20260508172005 | 8 | 237 | 30.6 | 48.3 | 0.00 | 0.00 | 0.00 | 56 | 1003.7 |
| 20260508171504 | 8 | 248 | 24.1 | 48.3 | 0.00 | 0.00 | 0.00 | 56 | 1003.6 |
| 20260508170503 | 8 | 263 | 35.4 | 48.3 | 0.00 | 0.00 | 0.00 | 57 | 1003.8 |
| 20260508170005 | 8 | 252 | 25.7 | 43.5 | 0.00 | 0.00 | 0.00 | 57 | 1004.1 |
| 20260508165504 | 7 | 238 | 19.3 | 43.5 | 0.00 | 0.00 | 0.00 | 58 | 1004.0 |
| 20260508165005 | 7 | 240 | 16.1 | 45.1 | 0.00 | 0.00 | 0.00 | 58 | 1004.2 |
| 20260508164504 | 7 | 231 | 30.6 | 45.1 | 0.00 | 0.00 | 0.00 | 59 | 1004.2 |
| 20260508164008 | 7 | 224 | 17.7 | 53.1 | 0.00 | 0.00 | 0.00 | 59 | 1003.9 |
| 20260508163503 | 7 | 220 | 27.4 | 53.1 | 0.00 | 0.00 | 0.00 | 58 | 1004.1 |
| 20260508163004 | 7 | 215 | 27.4 | 51.5 | 0.00 | 0.00 | 0.00 | 59 | 1004.2 |
| 20260508162504 | 7 | 227 | 30.6 | 51.5 | 0.00 | 0.00 | 0.00 | 59 | 1004.1 |
| 20260508162004 | 7 | 235 | 33.8 | 51.5 | 0.00 | 0.00 | 0.00 | 58 | 1004.2 |
| 20260508161505 | 7 | 230 | 35.4 | 56.3 | 0.00 | 0.00 | 0.00 | 59 | 1004.1 |
| 20260508161005 | 7 | 217 | 27.4 | 56.3 | 0.00 | 0.00 | 0.00 | 61 | 1004.2 |
| 20260508160504 | 7 | 221 | 24.1 | 57.9 | 0.00 | 0.00 | 0.00 | 60 | 1004.2 |
| 20260508160006 | 7 | 234 | 35.4 | 57.9 | 0.00 | 0.00 | 0.00 | 62 | 1004.0 |
| 20260508155504 | 7 | 231 | 17.7 | 56.3 | 0.00 | 0.00 | 0.00 | 60 | 1004.1 |
| 20260508155005 | 7 | 223 | 29.0 | 56.3 | 0.00 | 0.00 | 0.00 | 60 | 1004.0 |
| 20260508154504 | 7 | 227 | 35.4 | 54.7 | 0.00 | 0.00 | 0.00 | 60 | 1004.0 |
| 20260508154005 | 7 | 239 | 35.4 | 54.7 | 0.00 | 0.00 | 0.00 | 61 | 1004.3 |
| 20260508153504 | 7 | 230 | 40.2 | 56.3 | 0.00 | 0.00 | 0.00 | 61 | 1004.3 |
| 20260508153005 | 7 | 220 | 45.1 | 56.3 | 0.00 | 0.00 | 0.00 | 62 | 1004.6 |
| 20260508152504 | 6 | 227 | 27.4 | 53.1 | 0.00 | 0.00 | 0.00 | 63 | 1004.5 |
| 20260508152005 | 6 | 225 | 33.8 | 53.1 | 0.00 | 0.00 | 0.00 | 64 | 1004.6 |
| 20260508151504 | 6 | 219 | 27.4 | 48.3 | 0.00 | 0.00 | 0.00 | 64 | 1004.7 |
| 20260508151005 | 6 | 219 | 25.7 | 48.3 | 0.00 | 0.00 | 0.00 | 65 | 1004.7 |
| 20260508150504 | 6 | 229 | 24.1 | 54.7 | 0.00 | 0.00 | 0.00 | 65 | 1004.8 |
| 20260508150005 | 6 | 234 | 32.2 | 54.7 | 0.00 | 0.00 | 0.00 | 66 | 1004.8 |
| 20260508145504 | 6 | 227 | 24.1 | 54.7 | 0.00 | 0.00 | 0.00 | 67 | 1004.8 |
| 20260508145006 | 6 | 229 | 33.8 | 54.7 | 0.00 | 0.00 | 0.00 | 67 | 1004.5 |
| 20260508144504 | 6 | 235 | 35.4 | 54.7 | 0.00 | 0.00 | 0.00 | 67 | 1004.8 |
| 20260508144005 | 6 | 233 | 33.8 | 54.7 | 0.00 | 0.00 | 0.00 | 68 | 1004.5 |
| 20260508143005 | 6 | 236 | 33.8 | 57.9 | 0.00 | 0.00 | 0.00 | 68 | 1004.6 |
| 20260508142006 | 6 | 232 | 27.4 | 54.7 | 0.00 | 0.00 | 0.00 | 68 | 1004.3 |
| 20260508141504 | 6 | 234 | 35.4 | 54.7 | 0.00 | 0.00 | 0.00 | 68 | 1004.5 |
| 20260508140504 | 5 | 244 | 40.2 | 54.7 | 0.00 | 0.00 | 0.00 | 68 | 1004.3 |
| 20260508140005 | 5 | 237 | 30.6 | 67.6 | 0.00 | 0.00 | 0.00 | 68 | 1004.4 |
| 20260508135505 | 6 | 232 | 37.0 | 67.6 | 0.00 | 0.00 | 0.00 | 68 | 1004.2 |
| 20260508135006 | 6 | 227 | 37.0 | 59.5 | 0.00 | 0.00 | 0.00 | 68 | 1003.8 |
| 20260508134504 | 6 | 228 | 32.2 | 57.9 | 0.00 | 0.00 | 0.00 | 69 | 1003.8 |
| 20260508134005 | 5 | 228 | 27.4 | 61.2 | 0.00 | 0.00 | 0.00 | 68 | 1003.8 |
| 20260508133505 | 6 | 234 | 41.8 | 64.4 | 0.00 | 0.00 | 0.00 | 69 | 1003.7 |
| 20260508133005 | 6 | 242 | 37.0 | 64.4 | 0.00 | 0.00 | 0.00 | 69 | 1003.7 |
| 20260508132504 | 6 | 233 | 27.4 | 57.9 | 0.00 | 0.00 | 0.00 | 69 | 1003.8 |
| 20260508131505 | 6 | 228 | 38.6 | 64.4 | 0.00 | 0.00 | 0.00 | 69 | 1004.0 |
| 20260508131005 | 6 | 232 | 38.6 | 64.4 | 0.00 | 0.00 | 0.00 | 69 | 1003.9 |
| 20260508130504 | 6 | 234 | 33.8 | 64.4 | 0.00 | 0.00 | 0.00 | 69 | 1004.0 |
| 20260508125504 | 6 | 226 | 37.0 | 56.3 | 0.00 | 0.00 | 0.00 | 70 | 1004.1 |
| 20260508125005 | 6 | 253 | 29.0 | 59.5 | 0.00 | 0.00 | 0.00 | 70 | 1004.1 |
| 20260508124504 | 6 | 270 | 29.0 | 59.5 | 0.00 | 0.00 | 0.00 | 70 | 1003.9 |
| 20260508124005 | 6 | 231 | 25.7 | 57.9 | 0.00 | 0.00 | 0.00 | 71 | 1004.0 |
| 20260508123504 | 6 | 228 | 29.0 | 57.9 | 0.00 | 0.00 | 0.00 | 71 | 1003.8 |
| 20260508123005 | 5 | 249 | 25.7 | 74.0 | 0.00 | 0.00 | 0.00 | 71 | 1003.9 |
| 20260508122504 | 5 | 235 | 32.2 | 74.0 | 0.00 | 0.00 | 0.00 | 72 | 1004.0 |
| 20260508122005 | 5 | 221 | 43.5 | 56.3 | 0.00 | 0.00 | 0.00 | 72 | 1003.8 |
| 20260508121504 | 5 | 227 | 29.0 | 64.4 | 0.00 | 0.00 | 0.00 | 73 | 1003.9 |
| 20260508121005 | 5 | 230 | 33.8 | 64.4 | 0.00 | 0.00 | 0.00 | 74 | 1003.9 |
| 20260508120504 | 5 | 232 | 24.1 | 46.7 | 0.00 | 0.00 | 0.00 | 75 | 1003.9 |
| 20260508120005 | 5 | 225 | 27.4 | 48.3 | 0.00 | 0.00 | 0.00 | 76 | 1003.7 |
| 20260508115504 | 5 | 224 | 30.6 | 64.4 | 0.00 | 0.00 | 0.00 | 76 | 1003.7 |
| 20260508115005 | 5 | 229 | 35.4 | 64.4 | 0.00 | 0.00 | 0.00 | 77 | 1003.7 |
| 20260508114503 | 5 | 239 | 24.1 | 56.3 | 0.00 | 0.00 | 0.00 | 77 | 1003.7 |
| 20260508114005 | 5 | 241 | 29.0 | 56.3 | 0.00 | 0.00 | 0.00 | 77 | 1003.8 |
| 20260508113504 | 5 | 253 | 41.8 | 56.3 | 0.00 | 0.00 | 0.00 | 77 | 1003.7 |
| 20260508112504 | 5 | 227 | 37.0 | 57.9 | 0.00 | 0.00 | 0.00 | 77 | 1003.5 |
| 20260508111504 | 5 | 224 | 27.4 | 53.1 | 0.00 | 0.00 | 0.00 | 77 | 1003.6 |
| 20260508111006 | 5 | 218 | 27.4 | 53.1 | 0.00 | 0.00 | 0.00 | 77 | 1003.5 |
| 20260508110504 | 5 | 228 | 33.8 | 56.3 | 0.00 | 0.00 | 0.00 | 77 | 1003.5 |
| 20260508110007 | 5 | 230 | 33.8 | 56.3 | 0.00 | 0.00 | 0.00 | 77 | 1003.4 |
| 20260508105505 | 5 | 236 | 27.4 | 48.3 | 0.00 | 0.00 | 0.00 | 78 | 1003.7 |
| 20260508105007 | 5 | 229 | 35.4 | 64.4 | 0.00 | 0.00 | 0.00 | 78 | 1003.6 |
| 20260508104505 | 5 | 222 | 37.0 | 64.4 | 0.00 | 0.00 | 0.00 | 77 | 1003.3 |
| 20260508103504 | 5 | 297 | 40.2 | 54.7 | 0.00 | 0.00 | 0.00 | 76 | 1003.4 |
| 20260508103006 | 5 | 258 | 30.6 | 54.7 | 0.00 | 0.00 | 0.00 | 76 | 1003.5 |
| 20260508102005 | 5 | 250 | 32.2 | 57.9 | 0.00 | 0.00 | 0.00 | 76 | 1003.4 |
| 20260508101505 | 5 | 246 | 37.0 | 57.9 | 0.00 | 0.00 | 0.00 | 76 | 1003.3 |
| 20260508101006 | 5 | 247 | 33.8 | 57.9 | 0.00 | 0.00 | 0.00 | 77 | 1003.2 |
| 20260508100505 | 5 | 242 | 35.4 | 54.7 | 0.00 | 0.00 | 0.00 | 78 | 1003.3 |
| 20260508095504 | 5 | 254 | 43.5 | 57.9 | 0.00 | 0.00 | 0.00 | 79 | 1003.3 |
| 20260508095006 | 5 | 250 | 32.2 | 56.3 | 0.00 | 0.00 | 0.00 | 80 | 1003.3 |
| 20260508094505 | 5 | 248 | 33.8 | 59.5 | 0.00 | 0.00 | 0.00 | 80 | 1003.3 |
| 20260508094005 | 5 | 252 | 30.6 | 59.5 | 0.00 | 0.00 | 0.00 | 81 | 1003.2 |
| 20260508093504 | 5 | 260 | 29.0 | 54.7 | 0.00 | 0.00 | 0.00 | 81 | 1003.3 |
| 20260508092504 | 5 | 244 | 37.0 | 64.4 | 0.00 | 0.00 | 0.00 | 82 | 1003.3 |
| 20260508092005 | 5 | 238 | 30.6 | 56.3 | 0.00 | 0.00 | 0.00 | 82 | 1003.1 |
| 20260508091505 | 5 | 242 | 32.2 | 54.7 | 0.00 | 0.00 | 0.00 | 82 | 1003.0 |
| 20260508090504 | 5 | 244 | 35.4 | 72.4 | 0.00 | 0.00 | 0.00 | 83 | 1003.2 |
| 20260508085504 | 5 | 237 | 32.2 | 51.5 | 0.00 | 0.00 | 0.00 | 84 | 1003.0 |
| 20260508085005 | 5 | 242 | 25.7 | 64.4 | 0.00 | 0.00 | 0.00 | 85 | 1003.1 |
| 20260508084505 | 5 | 244 | 38.6 | 64.4 | 0.00 | 0.00 | 0.00 | 86 | 1003.2 |
| 20260508084005 | 5 | 248 | 35.4 | 57.9 | 0.00 | 0.00 | 0.00 | 87 | 1003.1 |
| 20260508083505 | 5 | 236 | 29.0 | 53.1 | 0.00 | 0.00 | 0.00 | 87 | 1003.3 |
| 20260508083005 | 5 | 236 | 33.8 | 53.1 | 0.00 | 0.00 | 0.00 | 88 | 1003.3 |
| 20260508082504 | 5 | 235 | 29.0 | 48.3 | 0.00 | 0.00 | 0.00 | 88 | 1003.5 |
| 20260508082005 | 5 | 230 | 30.6 | 53.1 | 0.00 | 0.00 | 0.00 | 88 | 1003.3 |
| 20260508081505 | 5 | 253 | 30.6 | 53.1 | 0.00 | 0.00 | 0.00 | 88 | 1003.4 |
| 20260508081005 | 5 | 250 | 38.6 | 51.5 | 0.00 | 0.00 | 0.00 | 88 | 1003.5 |
| 20260508080504 | 5 | 242 | 33.8 | 51.5 | 0.00 | 0.00 | 0.00 | 88 | 1003.7 |
| 20260508080005 | 6 | 254 | 27.4 | 51.5 | 0.00 | 0.00 | 0.00 | 88 | 1003.7 |
| 20260508075505 | 6 | 254 | 32.2 | 49.9 | 0.00 | 0.00 | 0.00 | 88 | 1003.5 |
| 20260508074504 | 6 | 251 | 24.1 | 46.7 | 0.00 | 0.00 | 0.00 | 88 | 1003.4 |
| 20260508074005 | 6 | 267 | 33.8 | 49.9 | 0.00 | 0.00 | 0.00 | 88 | 1003.5 |
| 20260508073005 | 6 | 257 | 35.4 | 49.9 | 0.00 | 0.00 | 0.00 | 88 | 1003.6 |
| 20260508072504 | 6 | 265 | 38.6 | 49.9 | 0.00 | 0.00 | 0.00 | 88 | 1003.7 |
| 20260508072005 | 6 | 247 | 32.2 | 53.1 | 0.00 | 0.00 | 0.00 | 88 | 1003.6 |
| 20260508071504 | 6 | 251 | 29.0 | 53.1 | 0.00 | 0.00 | 0.00 | 88 | 1003.6 |
| 20260508071005 | 6 | 255 | 27.4 | 51.5 | 0.00 | 0.00 | 0.00 | 88 | 1003.8 |
| 20260508070005 | 6 | 243 | 33.8 | 57.9 | 0.00 | 0.00 | 0.00 | 87 | 1003.6 |
| 20260508065006 | 6 | 254 | 33.8 | 61.2 | 0.00 | 0.00 | 0.00 | 88 | 1003.7 |
| 20260508064504 | 6 | 234 | 38.6 | 61.2 | 0.00 | 0.00 | 0.00 | 89 | 1003.6 |
| 20260508064005 | 6 | 233 | 45.1 | 56.3 | 0.00 | 0.00 | 0.00 | 89 | 1003.6 |
| 20260508063504 | 6 | 242 | 35.4 | 51.5 | 0.00 | 0.00 | 0.00 | 90 | 1003.7 |
| 20260508062504 | 6 | 246 | 40.2 | 53.1 | 0.00 | 0.00 | 0.00 | 93 | 1003.8 |
| 20260508062005 | 6 | 250 | 24.1 | 53.1 | 0.00 | 0.00 | 0.00 | 93 | 1003.7 |
| 20260508061504 | 6 | 262 | 32.2 | 48.3 | 0.00 | 0.00 | 0.00 | 94 | 1003.7 |
| 20260508061004 | 6 | 267 | 33.8 | 51.5 | 0.00 | 0.00 | 0.00 | 94 | 1003.9 |
| 20260508060005 | 6 | 258 | 32.2 | 54.7 | 0.00 | 0.00 | 0.00 | 94 | 1003.9 |
| 20260508055005 | 6 | 253 | 33.8 | 49.9 | 0.00 | 0.00 | 0.00 | 95 | 1003.9 |
| 20260508054504 | 6 | 239 | 30.6 | 57.9 | 0.00 | 0.00 | 0.00 | 95 | 1003.9 |
| 20260508054005 | 6 | 239 | 41.8 | 57.9 | 0.00 | 0.00 | 0.00 | 95 | 1003.8 |
| 20260508053503 | 6 | 244 | 30.6 | 53.1 | 0.00 | 0.00 | 0.00 | 95 | 1004.1 |
| 20260508053005 | 6 | 236 | 27.4 | 43.5 | 0.00 | 0.00 | 0.00 | 95 | 1004.1 |
| 20260508051504 | 6 | 234 | 29.0 | 57.9 | 0.00 | 0.00 | 0.00 | 94 | 1004.1 |
| 20260508051005 | 6 | 232 | 19.3 | 57.9 | 0.00 | 0.00 | 0.00 | 94 | 1004.2 |
| 20260508050504 | 6 | 235 | 43.5 | 56.3 | 0.00 | 0.00 | 0.00 | 93 | 1004.0 |
| 20260508050005 | 6 | 244 | 22.5 | 56.3 | 0.00 | 0.00 | 0.00 | 93 | 1004.0 |
| 20260508045504 | 6 | 256 | 35.4 | 48.3 | 0.00 | 0.00 | 0.00 | 92 | 1004.0 |
| 20260508045005 | 6 | 251 | 27.4 | 48.3 | 0.00 | 0.00 | 0.00 | 92 | 1004.1 |
| 20260508044005 | 6 | 244 | 33.8 | 54.7 | 0.00 | 0.00 | 0.00 | 90 | 1004.2 |
| 20260508043504 | 6 | 242 | 40.2 | 54.7 | 0.00 | 0.00 | 0.00 | 90 | 1004.0 |
| 20260508043005 | 6 | 235 | 29.0 | 49.9 | 0.00 | 0.00 | 0.00 | 89 | 1004.2 |
| 20260508042504 | 7 | 241 | 32.2 | 56.3 | 0.00 | 0.00 | 0.00 | 89 | 1004.0 |
| 20260508042005 | 7 | 242 | 32.2 | 56.3 | 0.00 | 0.00 | 0.00 | 89 | 1004.0 |
| 20260508041504 | 7 | 244 | 38.6 | 57.9 | 0.00 | 0.00 | 0.00 | 88 | 1004.1 |
| 20260508041005 | 7 | 248 | 27.4 | 57.9 | 0.00 | 0.00 | 0.00 | 88 | 1003.9 |
| 20260508040006 | 7 | 244 | 37.0 | 57.9 | 0.00 | 0.00 | 0.00 | 89 | 1004.0 |
| 20260508035504 | 7 | 239 | 41.8 | 57.9 | 0.00 | 0.00 | 0.00 | 89 | 1003.9 |
| 20260508035005 | 7 | 244 | 35.4 | 54.7 | 0.00 | 0.00 | 0.00 | 89 | 1004.1 |
| 20260508034005 | 7 | 254 | 33.8 | 54.7 | 0.00 | 0.00 | 0.00 | 88 | 1004.1 |
| 20260508032506 | 7 | 252 | 37.0 | 53.1 | 0.00 | 0.00 | 0.00 | 87 | 1004.1 |
| 20260508032005 | 7 | 235 | 32.2 | 53.1 | 0.00 | 0.00 | 0.00 | 87 | 1004.1 |
| 20260508031504 | 7 | 241 | 25.7 | 49.9 | 0.00 | 0.00 | 0.00 | 86 | 1004.1 |
| 20260508031006 | 7 | 233 | 30.6 | 48.3 | 0.00 | 0.00 | 0.00 | 87 | 1004.2 |
| 20260508030006 | 6 | 222 | 33.8 | 53.1 | 0.00 | 0.00 | 0.00 | 87 | 1004.2 |
| 20260508024505 | 6 | 254 | 37.0 | 54.7 | 0.00 | 0.00 | 0.00 | 87 | 1004.3 |
| 20260508023507 | 6 | 229 | 35.4 | 54.7 | 0.00 | 0.00 | 0.00 | 87 | 1004.1 |
| 20260508023005 | 6 | 240 | 27.4 | 57.9 | 0.00 | 0.00 | 0.00 | 87 | 1004.2 |
| 20260508022504 | 6 | 231 | 27.4 | 57.9 | 0.00 | 0.00 | 0.00 | 87 | 1004.1 |
| 20260508022006 | 6 | 206 | 37.0 | 53.1 | 0.00 | 0.00 | 0.00 | 88 | 1004.2 |
| 20260508021505 | 6 | 230 | 27.4 | 61.2 | 0.00 | 0.00 | 0.00 | 88 | 1004.2 |
| 20260508021005 | 6 | 252 | 33.8 | 61.2 | 0.00 | 0.00 | 0.00 | 88 | 1004.5 |
| 20260508020504 | 6 | 245 | 25.7 | 59.5 | 0.00 | 0.00 | 0.00 | 88 | 1004.4 |
| 20260508020006 | 6 | 242 | 29.0 | 59.5 | 0.00 | 0.00 | 0.00 | 88 | 1004.5 |
| 20260508015505 | 6 | 233 | 43.5 | 59.5 | 0.00 | 0.00 | 0.00 | 88 | 1004.5 |
| 20260508014504 | 6 | 248 | 25.7 | 62.8 | 0.00 | 0.00 | 0.00 | 87 | 1004.5 |
| 20260508014006 | 7 | 247 | 37.0 | 62.8 | 0.00 | 0.00 | 0.00 | 87 | 1004.5 |
| 20260508013504 | 7 | 240 | 27.4 | 51.5 | 0.00 | 0.00 | 0.00 | 86 | 1004.5 |
| 20260508013006 | 7 | 238 | 32.2 | 51.5 | 0.00 | 0.00 | 0.00 | 86 | 1004.5 |
| 20260508012006 | 7 | 246 | 32.2 | 59.5 | 0.00 | 0.00 | 0.00 | 86 | 1004.6 |
| 20260508011508 | 7 | 239 | 30.6 | 48.3 | 0.00 | 0.00 | 0.00 | 86 | 1004.8 |
| 20260508011005 | 7 | 236 | 32.2 | 51.5 | 0.00 | 0.00 | 0.00 | 85 | 1004.7 |
| 20260508010504 | 7 | 253 | 33.8 | 51.5 | 0.00 | 0.00 | 0.00 | 84 | 1004.9 |
| 20260508010006 | 6 | 262 | 17.7 | 43.5 | 0.00 | 0.00 | 0.00 | 84 | 1004.7 |
| 20260508005505 | 6 | 247 | 30.6 | 43.5 | 0.00 | 0.00 | 0.00 | 84 | 1004.7 |
| 20260508004504 | 6 | 245 | 29.0 | 54.7 | 0.00 | 0.00 | 0.00 | 83 | 1004.6 |
| 20260508002505 | 6 | 257 | 33.8 | 54.7 | 0.00 | 0.00 | 0.00 | 83 | 1004.7 |
| 20260508002006 | 6 | 252 | 33.8 | 64.4 | 0.00 | 0.00 | 0.00 | 83 | 1004.8 |
| 20260508001505 | 6 | 247 | 35.4 | 64.4 | 0.00 | 0.00 | 0.00 | 83 | 1004.6 |
| 20260508001006 | 6 | 247 | 29.0 | 57.9 | 0.00 | 0.03 | 0.00 | 83 | 1004.5 |
| 20260508000505 | 6 | 252 | 41.8 | 57.9 | 0.00 | 0.03 | 0.00 | 83 | 1004.6 |
| 20260508000006 | 6 | 250 | 25.7 | 45.1 | 0.00 | 0.03 | 0.00 | 83 | 1004.5 |
| 20260507235505 | 6 | 238 | 30.6 | 45.1 | 0.00 | 0.03 | 0.00 | 83 | 1004.8 |
| 20260507235006 | 6 | 250 | 27.4 | 54.7 | 0.00 | 0.03 | 0.00 | 83 | 1004.8 |
| 20260507233506 | 7 | 236 | 17.7 | 54.7 | 0.00 | 0.08 | 0.00 | 86 | 1005.0 |
| 20260507233006 | 7 | 231 | 33.8 | 62.8 | 0.00 | 0.08 | 0.00 | 87 | 1004.9 |
| 20260507232507 | 7 | 245 | 41.8 | 62.8 | 0.00 | 0.08 | 0.00 | 88 | 1004.8 |
| 20260507232006 | 7 | 249 | 27.4 | 51.5 | 0.00 | 0.08 | 0.00 | 88 | 1004.9 |
| 20260507231505 | 7 | 248 | 24.1 | 48.3 | 0.00 | 0.10 | 0.00 | 89 | 1004.8 |
| 20260507231006 | 7 | 238 | 32.2 | 57.9 | 0.00 | 0.15 | 0.00 | 89 | 1004.6 |
| 20260507230505 | 7 | 235 | 24.1 | 57.9 | 0.00 | 0.20 | 0.00 | 90 | 1004.6 |
| 20260507224506 | 7 | 347 | 27.4 | 54.7 | 0.00 | 0.41 | 0.00 | 91 | 1004.8 |
| 20260507224006 | 7 | 302 | 46.7 | 54.7 | 0.00 | 0.43 | 0.00 | 91 | 1004.7 |
| 20260507223505 | 7 | 244 | 33.8 | 54.7 | 0.00 | 0.46 | 0.00 | 91 | 1004.6 |
| 20260507223006 | 7 | 347 | 27.4 | 48.3 | 0.00 | 0.46 | 0.00 | 92 | 1004.6 |
| 20260507221504 | 8 | 13 | 33.8 | 51.5 | 0.00 | 0.48 | 0.00 | 93 | 1004.6 |
| 20260507221009 | 8 | 299 | 24.1 | 43.5 | 0.00 | 0.48 | 0.00 | 93 | 1004.5 |
| 20260507220504 | 8 | 332 | 24.1 | 40.2 | 0.00 | 0.53 | 0.00 | 93 | 1004.6 |
| 20260507215005 | 8 | 332 | 25.7 | 41.8 | 0.00 | 0.69 | 0.00 | 92 | 1004.3 |
| 20260507214504 | 8 | 349 | 19.3 | 54.7 | 0.00 | 0.97 | 0.00 | 92 | 1004.1 |
| 20260507214005 | 8 | 1 | 27.4 | 54.7 | 0.00 | 0.97 | 0.00 | 92 | 1004.0 |
| 20260507213504 | 8 | 342 | 27.4 | 43.5 | 0.00 | 1.02 | 0.00 | 92 | 1004.1 |
| 20260507213005 | 8 | 310 | 27.4 | 43.5 | 0.00 | 1.32 | 0.00 | 92 | 1003.8 |
| 20260507212005 | 8 | 250 | 22.5 | 43.5 | 0.00 | 1.32 | 0.00 | 92 | 1003.5 |
| 20260507211504 | 8 | 237 | 25.7 | 37.0 | 0.00 | 1.32 | 0.00 | 92 | 1003.5 |
| 20260507211006 | 8 | 233 | 24.1 | 46.7 | 0.00 | 1.32 | 0.00 | 92 | 1003.4 |
| 20260507210504 | 8 | 240 | 24.1 | 46.7 | 0.00 | 1.32 | 0.00 | 92 | 1003.5 |
| 20260507210006 | 9 | 243 | 29.0 | 48.3 | 0.00 | 1.35 | 0.00 | 92 | 1003.3 |
| 20260507205505 | 9 | 242 | 29.0 | 48.3 | 0.00 | 1.40 | 0.00 | 93 | 1003.2 |
| 20260507204504 | 9 | 242 | 30.6 | 49.9 | 0.00 | 1.40 | 0.00 | 94 | 1003.1 |
| 20260507204005 | 9 | 248 | 29.0 | 40.2 | 0.00 | 1.40 | 0.00 | 94 | 1003.3 |
| 20260507203504 | 9 | 240 | 22.5 | 48.3 | 0.00 | 1.40 | 0.00 | 94 | 1003.4 |
| 20260507203006 | 9 | 245 | 22.5 | 48.3 | 0.00 | 1.40 | 0.00 | 94 | 1003.7 |
| 20260507202504 | 9 | 238 | 29.0 | 41.8 | 0.00 | 1.40 | 0.00 | 93 | 1003.6 |
| 20260507202005 | 9 | 231 | 29.0 | 41.8 | 0.00 | 1.40 | 0.00 | 93 | 1003.8 |
| 20260507201504 | 9 | 244 | 24.1 | 40.2 | 0.00 | 1.40 | 0.00 | 93 | 1003.6 |
| 20260507201005 | 9 | 238 | 24.1 | 40.2 | 0.00 | 1.40 | 0.00 | 93 | 1004.0 |
| 20260507200504 | 9 | 217 | 27.4 | 43.5 | 0.00 | 1.40 | 0.00 | 92 | 1003.7 |
| 20260507200005 | 9 | 224 | 30.6 | 43.5 | 0.00 | 1.40 | 0.00 | 92 | 1003.9 |
| 20260507195504 | 9 | 236 | 27.4 | 38.6 | 0.00 | 1.40 | 0.00 | 91 | 1003.9 |
| 20260507195006 | 10 | 236 | 22.5 | 51.5 | 0.00 | 1.42 | 0.00 | 91 | 1003.9 |
| 20260507194505 | 10 | 244 | 24.1 | 51.5 | 0.00 | 1.42 | 0.00 | 90 | 1004.0 |
| 20260507194005 | 10 | 252 | 19.3 | 46.7 | 0.00 | 1.42 | 0.00 | 89 | 1003.9 |
| 20260507193504 | 10 | 254 | 30.6 | 46.7 | 0.00 | 1.42 | 0.00 | 89 | 1004.0 |
| 20260507193005 | 10 | 255 | 24.1 | 48.3 | 0.00 | 1.42 | 0.00 | 88 | 1003.7 |
| 20260507192504 | 10 | 249 | 29.0 | 48.3 | 0.00 | 1.42 | 0.00 | 88 | 1003.9 |
| 20260507192005 | 10 | 237 | 29.0 | 45.1 | 0.00 | 1.42 | 0.00 | 87 | 1003.6 |
| 20260507191504 | 10 | 231 | 27.4 | 45.1 | 0.00 | 1.42 | 0.00 | 87 | 1003.8 |
| 20260507191005 | 11 | 223 | 27.4 | 43.5 | 0.00 | 1.42 | 0.00 | 87 | 1003.8 |
| 20260507190504 | 11 | 230 | 29.0 | 43.5 | 0.00 | 1.42 | 0.00 | 87 | 1004.0 |